[[{"header":{"parameterUnit":"m.s-1","parameterCategory":1,"la1":30.2991,"la2":30.254,"lo1":-89.0895,"lo2":-89.0444,"dy":0.0017,"dx":0.0017,"nx":28,"ny":28,"refTime":"2025-06-02T21:00:00:Z","depth":0,"parameterNumber":2,"parameterNumberName":"U-component_of_WINDS"},"data":[0,0,0,0,0,0,0,0,0,0,0,0,0,0,0,0,0,0,0,0,0,0,0,0,0,0,0,0,0,0,0,0,0,0,0,0,0,0,0,0,0,0,0,0,0,0,0,0,0,0,0,0,0,0,0,0,0,0,-4.4587,-4.4588,0,-4.4668,-4.4669,-4.467,-4.4615,-4.4612,-4.461,-4.4607,-4.4689,-4.4693,-4.4697,0,0,0,0,0,0,0,0,0,0,0,0,0,-4.4382,-4.4386,-4.4587,-4.4588,-4.4589,-4.4668,-4.4669,-4.467,-4.4615,-4.4612,-4.4609,-4.4606,-4.4687,-4.4693,-4.4698,0,0,0,0,0,0,0,0,0,0,0,0,0,-4.4468,-4.4387,-4.4586,-4.4571,-4.457,-4.4667,-4.4669,-4.467,-4.4616,-4.4612,-4.4608,-4.4605,-4.4685,-4.4692,-4.4699,-4.4815,0,0,-4.4719,-4.4722,0,0,0,0,0,0,0,0,-4.4463,-4.4475,-4.4572,-4.4572,-4.4572,-4.4627,-4.4626,-4.4719,-4.4617,-4.4599,-4.4607,-4.4603,-4.4671,-4.4679,-4.4702,-4.4819,-4.4822,-4.472,-4.4724,-4.4727,-4.4729,0,0,0,0,0,0,0,-4.4457,-4.4471,-4.4619,-4.4574,-4.4573,-4.4559,-4.4567,-4.4643,-4.4655,-4.46,-4.4596,-4.4607,-4.467,-4.4696,-4.4704,-4.4823,-4.472,-4.4726,-4.473,-4.4732,-4.5037,-4.504,0,0,0,0,0,0,-4.4453,-4.4467,-4.4616,-4.4621,-4.4507,-4.4566,-4.4575,-4.4613,-4.4654,-4.4656,-4.461,-4.4604,-4.4686,-4.4696,-4.4706,-4.4843,-4.4727,-4.4733,-4.4737,-4.5033,-4.5037,-4.5042,0,0,0,0,0,0,-4.4448,-4.4466,-4.4613,-4.4543,-4.456,-4.4573,-4.4617,-4.4617,-4.4642,-4.4661,-4.4663,-4.4634,-4.4684,-4.4697,-4.4788,-4.4845,-4.4736,-4.4742,-4.5028,-4.5034,-4.504,-4.5118,0,0,0,0,0,0,-4.4443,-4.4465,-4.451,-4.4544,-4.4564,-4.4694,-4.4621,-4.4621,-4.4654,-4.4647,-4.4684,-4.4687,-4.4682,-4.4778,-4.4795,-4.4852,-4.4747,-4.5023,-4.5031,-4.5038,-4.5111,-4.5126,-4.514,0,0,0,0,0,-4.4436,-4.4529,-4.4513,-4.4531,-4.4621,-4.4697,-4.4709,-4.4702,-4.4659,-4.4704,-4.4716,-4.4686,-4.4837,-4.4788,-4.4806,-4.4867,-4.5019,-4.5028,-4.5037,-4.5104,-4.5123,-4.514,0,0,0,0,0,0,-4.4501,-4.4533,-4.4516,-4.4623,-4.4658,-4.4688,-4.4744,-4.4722,-4.4769,-4.4761,-4.4749,-4.4758,-4.4853,-4.4869,-4.4814,-4.498,-4.4921,-4.4934,-4.4966,-4.4984,-4.4998,-4.4991,-4.4753,0,0,0,0,0,-4.4528,-4.4588,-4.4613,-4.4706,-4.4724,-4.4731,-4.4764,-4.4756,-4.4791,-4.4805,-4.4824,-4.4859,-4.4914,-4.495,-4.5002,-4.5114,-4.5119,-4.5164,-4.5179,-4.519,-4.5201,-4.5259,-4.5278,-4.5072,-4.5072,-4.5072,0,0,-4.4585,-4.461,-4.4648,-4.4719,-4.4745,-4.4806,-4.4744,-4.4812,-4.4857,-4.4815,-4.4902,-4.4917,-4.4955,-4.5056,-4.5102,-4.5072,-4.526,-4.5202,-4.5211,-4.5216,-4.527,-4.529,-4.5307,-4.5078,-4.5077,-4.5076,0,0,-4.4718,-4.4744,-4.4823,-4.485,-4.489,-4.4894,-4.4913,-4.4947,-4.4955,-4.5042,-4.5011,-4.5064,-4.516,-4.5188,-4.5214,-4.5358,-4.5331,-4.5375,-4.545,-4.5507,-4.5523,-4.5537,-4.5586,-4.5604,-4.5386,-4.5386,-4.5386,0,-4.4782,-4.4874,-4.4866,-4.4936,-4.4967,-4.4933,-4.5012,-4.5039,-4.5093,-4.5115,-4.5082,-4.52,-4.5224,-4.533,-4.5365,-4.5388,-4.5408,-4.537,-4.5522,-4.5536,-4.5549,-4.5595,-4.5614,-4.5391,-4.5391,-4.539,-4.539,0,-4.495,-4.5014,-4.5073,-4.5127,-4.5165,-4.5239,-4.5241,-4.5281,-4.5269,-4.5276,-4.5364,-4.5391,-4.5446,-4.5472,-4.5461,-4.5576,-4.5556,-4.5523,-4.5463,-4.5574,-4.5617,-4.5635,-4.5398,-4.5396,-4.5395,-4.5394,0,0,-4.5126,-4.5174,-4.5196,-4.5219,-4.526,-4.5309,-4.5381,-4.5436,-4.5469,-4.5508,-4.5567,-4.5648,-4.5617,-4.5647,-4.564,-4.569,-4.5798,-4.565,-4.565,-4.5674,-4.5924,-4.5947,-4.5968,-4.5782,-4.5785,-4.5788,-4.592,0,-4.526,-4.5385,-4.538,-4.5497,-4.5554,-4.5523,-4.5585,-4.5617,-4.5626,-4.5675,-4.5685,-4.5742,-4.5698,-4.5715,-4.5764,-4.5775,-4.5848,-4.5766,-4.5834,-4.5837,-4.5823,-4.5991,-4.6016,-4.6139,-4.5937,-4.594,-4.5942,0,-4.5432,-4.5477,-4.56,-4.5631,-4.5655,-4.5711,-4.576,-4.5809,-4.5843,-4.5846,-4.588,-4.5863,-4.5935,-4.5875,-4.5972,-4.5916,-4.5944,-4.5954,-4.5958,-4.5962,-4.5894,-4.5997,-4.6178,-4.6196,-4.5969,-4.5967,-4.5965,0,-4.5545,-4.5636,-4.5721,-4.5742,-4.5781,-4.5821,-4.5839,-4.587,-4.5903,-4.5946,-4.5967,-4.6018,-4.6045,-4.6084,-4.6081,-4.6038,-4.6179,-4.6119,-4.6182,-4.6182,-4.6211,-4.6208,-4.6396,-4.6233,-4.6233,-4.6233,-4.6232,0,-4.5693,-4.5769,-4.5771,-4.5823,-4.5907,-4.5899,-4.5982,-4.5996,-4.6024,-4.6076,-4.6053,-4.6103,-4.6098,-4.6148,-4.6147,-4.6226,-4.6239,-4.6242,-4.624,-4.6243,-4.6242,-4.6259,-4.6249,-4.6238,-4.6236,-4.6236,-4.6235,0,-4.5833,-4.5838,-4.5927,-4.5957,-4.5966,-4.6026,-4.6051,-4.61,-4.6106,-4.6174,-4.6189,-4.62,-4.6257,-4.6259,-4.6326,-4.6325,-4.6421,-4.6411,-4.6409,-4.6406,-4.6467,-4.646,-4.667,-4.6697,-4.6519,-4.6521,-4.6522,0,-4.5926,-4.5983,-4.6019,-4.6053,-4.6073,-4.6129,-4.6162,-4.6157,-4.6192,-4.6235,-4.6278,-4.6334,-4.6378,-4.6471,-4.6484,-4.6535,-4.6524,-4.6594,-4.6531,-4.6531,-4.6522,-4.6518,-4.6522,-4.6606,-4.6608,-4.6609,-4.6611,0,-4.609,-4.6089,-4.6138,-4.6188,-4.6228,-4.6267,-4.6303,-4.6332,-4.6331,-4.6372,-4.643,-4.6465,-4.6532,-4.6587,-4.6636,-4.6653,-4.6631,-4.6631,-4.6647,-4.6649,-4.6645,-4.6645,-4.6439,-4.6625,-4.6624,-4.6623,-4.6622,-4.6621,-4.6207,-4.6256,-4.6288,-4.6343,-4.6369,-4.6403,-4.645,-4.6462,-4.6511,-4.6566,-4.656,-4.6625,-4.6657,-4.672,-4.6742,-4.6792,-4.6767,-4.6792,-4.6798,-4.6803,-4.6808,-4.6639,-4.6801,-4.68,-4.68,-4.68,-4.6799,0,-4.6367,-4.6387,-4.6437,-4.6488,-4.6531,-4.6508,-4.6546,-4.6583,-4.664,-4.6672,-4.6716,-4.6783,-4.6835,-4.6853,-4.6904,-4.694,-4.6931,-4.6953,-4.6949,-4.6953,-4.6829,-4.6808,-4.696,-4.696,-4.696,-4.696,-4.696,-4.6959,-4.6456,-4.6536,-4.6539,-4.6632,-4.665,-4.6714,-4.6737,-4.6768,-4.6793,-4.6868,-4.6912,-4.6923,-4.6949,-4.7001,-4.7048,-4.7052,-4.7071,-4.7097,-4.7096,-4.6979,-4.6962,-4.6947,-4.6927,-4.7101,-4.7102,-4.7216,-4.7217,-4.7218]},{"header":{"parameterUnit":"m.s-1","parameterCategory":1,"la1":30.2991,"la2":30.254,"lo1":-89.0895,"lo2":-89.0444,"dy":0.0017,"dx":0.0017,"nx":28,"ny":28,"refTime":"2025-06-02T21:00:00:Z","depth":0,"parameterNumber":3,"parameterNumberName":"V-component_of_WINDS"},"data":[0,0,0,0,0,0,0,0,0,0,0,0,0,0,0,0,0,0,0,0,0,0,0,0,0,0,0,0,0,0,0,0,0,0,0,0,0,0,0,0,0,0,0,0,0,0,0,0,0,0,0,0,0,0,0,0,0,0,1.6781,1.678,0,1.6711,1.671,1.671,1.6614,1.6612,1.661,1.6609,1.6535,1.6534,1.6534,0,0,0,0,0,0,0,0,0,0,0,0,0,1.683,1.683,1.6781,1.678,1.6779,1.6711,1.671,1.6709,1.6614,1.6612,1.661,1.6608,1.6535,1.6534,1.6534,0,0,0,0,0,0,0,0,0,0,0,0,0,1.679,1.683,1.6781,1.6724,1.6718,1.6712,1.671,1.6709,1.6614,1.6612,1.6609,1.6607,1.6535,1.6534,1.6534,1.6578,0,0,1.6531,1.6531,0,0,0,0,0,0,0,0,1.6792,1.6788,1.6733,1.6728,1.6721,1.6669,1.67,1.6665,1.6615,1.6653,1.6609,1.6606,1.6581,1.6576,1.6568,1.6574,1.6571,1.6531,1.6531,1.6531,1.653,0,0,0,0,0,0,0,1.6795,1.679,1.6753,1.6732,1.6725,1.6701,1.6692,1.6693,1.6631,1.665,1.6643,1.6636,1.6577,1.6569,1.6566,1.657,1.6531,1.6531,1.653,1.653,1.6609,1.6611,0,0,0,0,0,0,1.6807,1.6793,1.6756,1.6751,1.6751,1.6702,1.6692,1.6688,1.6631,1.662,1.6638,1.6632,1.6572,1.6567,1.6563,1.6611,1.6531,1.653,1.6529,1.6606,1.6609,1.6612,0,0,0,0,0,0,1.6808,1.6804,1.6758,1.677,1.6763,1.6704,1.6699,1.6688,1.668,1.6622,1.6611,1.6642,1.657,1.6564,1.6575,1.6607,1.653,1.6529,1.6603,1.6607,1.6611,1.6708,0,0,0,0,0,0,1.681,1.6805,1.6822,1.6772,1.6763,1.6772,1.6701,1.6688,1.6679,1.667,1.6622,1.6612,1.6567,1.6577,1.6574,1.6605,1.6528,1.66,1.6605,1.661,1.6702,1.6715,1.6726,0,0,0,0,0,1.6812,1.6851,1.6823,1.6819,1.6782,1.6774,1.6769,1.6717,1.6682,1.6698,1.6661,1.6614,1.6605,1.6579,1.6575,1.6606,1.6598,1.6604,1.6609,1.6696,1.6712,1.6726,0,0,0,0,0,0,1.6905,1.6843,1.6811,1.6835,1.6811,1.6758,1.6776,1.6736,1.672,1.6712,1.6648,1.6638,1.6657,1.6632,1.6605,1.6646,1.6594,1.6599,1.6661,1.6676,1.6688,1.6693,1.6528,0,0,0,0,0,1.6929,1.6929,1.6874,1.6901,1.689,1.6836,1.6831,1.6793,1.6765,1.6754,1.6718,1.6692,1.6683,1.6678,1.6666,1.6698,1.6686,1.6718,1.673,1.674,1.6745,1.6761,1.6774,1.6631,1.6631,1.6631,0,0,1.6977,1.6943,1.6947,1.6919,1.6895,1.6896,1.6828,1.6831,1.6831,1.6754,1.6762,1.6736,1.6702,1.6724,1.6732,1.6704,1.6782,1.6747,1.6756,1.6755,1.6768,1.6781,1.6794,1.6635,1.6634,1.6633,0,0,1.7065,1.704,1.7059,1.7038,1.7004,1.6968,1.6973,1.6926,1.6906,1.6914,1.6856,1.6855,1.6841,1.682,1.6807,1.689,1.6846,1.6888,1.6951,1.6967,1.6978,1.6988,1.7017,1.7029,1.6893,1.6894,1.6894,0,1.7129,1.7129,1.7074,1.7082,1.7071,1.7003,1.7023,1.7004,1.6968,1.6962,1.6932,1.6914,1.6887,1.6903,1.6924,1.6916,1.6919,1.6893,1.6981,1.699,1.6998,1.7026,1.7037,1.6899,1.6898,1.6898,1.6897,0,1.7209,1.721,1.723,1.7198,1.719,1.7203,1.7151,1.7149,1.7113,1.708,1.709,1.7055,1.7036,1.7037,1.7001,1.7048,1.7032,1.6993,1.6939,1.7018,1.7043,1.7053,1.6907,1.6905,1.6903,1.6902,0,0,1.7352,1.7292,1.73,1.7285,1.7244,1.7243,1.7254,1.7236,1.7236,1.7214,1.7221,1.7212,1.7176,1.7162,1.7123,1.7137,1.7206,1.7095,1.7094,1.7117,1.7256,1.7286,1.7299,1.7177,1.7178,1.718,1.7259,0,1.7432,1.7448,1.74,1.7427,1.7428,1.7364,1.7373,1.7349,1.7319,1.7315,1.7281,1.7276,1.7228,1.7219,1.723,1.7195,1.7233,1.7189,1.7182,1.7183,1.7192,1.7312,1.7343,1.742,1.7268,1.727,1.7271,0,1.7527,1.7511,1.754,1.7498,1.7496,1.7505,1.7486,1.7483,1.7454,1.7431,1.7417,1.7373,1.738,1.733,1.734,1.7311,1.7306,1.7288,1.729,1.7287,1.7231,1.7312,1.7443,1.7455,1.7286,1.7285,1.7284,0,1.7629,1.7615,1.763,1.7619,1.7571,1.7579,1.7559,1.7528,1.7521,1.7504,1.7499,1.7483,1.7475,1.7463,1.7416,1.7384,1.7431,1.7377,1.7412,1.7414,1.7424,1.7424,1.7556,1.7422,1.7422,1.7422,1.7422,0,1.7723,1.7743,1.7675,1.7685,1.7705,1.765,1.7672,1.7645,1.7619,1.7622,1.7565,1.7569,1.7507,1.7504,1.7467,1.7481,1.7477,1.7459,1.7449,1.7464,1.7466,1.7459,1.7452,1.7425,1.7424,1.7424,1.7423,0,1.784,1.7795,1.7808,1.7762,1.7751,1.7768,1.7728,1.7735,1.7702,1.7707,1.7704,1.7653,1.7647,1.7599,1.7581,1.7557,1.7584,1.7564,1.7594,1.7588,1.7626,1.7623,1.7757,1.7772,1.763,1.7631,1.7632,0,1.7902,1.7916,1.7872,1.7871,1.7854,1.7852,1.7845,1.7792,1.7787,1.7756,1.7767,1.7757,1.7745,1.7738,1.7699,1.7686,1.7664,1.7712,1.7662,1.7677,1.7665,1.7665,1.7666,1.7723,1.7725,1.7726,1.7727,0,1.8018,1.7996,1.7989,1.7974,1.7968,1.7954,1.7936,1.7938,1.7879,1.7877,1.787,1.7862,1.7845,1.7835,1.7816,1.7794,1.7752,1.7744,1.7751,1.7767,1.7784,1.7775,1.7623,1.7741,1.7739,1.7738,1.7738,1.7737,1.8109,1.8119,1.809,1.8084,1.8066,1.8051,1.8055,1.8024,1.8018,1.8001,1.797,1.7968,1.794,1.791,1.7892,1.789,1.7865,1.7876,1.7878,1.7882,1.789,1.7785,1.7886,1.7886,1.7885,1.7885,1.7885,0,1.8222,1.8201,1.8196,1.8174,1.8169,1.8131,1.811,1.8108,1.8108,1.8086,1.8076,1.807,1.8061,1.8022,1.8008,1.8014,1.7994,1.8012,1.8011,1.8007,1.7913,1.7908,1.8029,1.8029,1.8029,1.8029,1.8029,1.8029,1.8281,1.8295,1.827,1.8275,1.8254,1.8252,1.8244,1.823,1.8212,1.8208,1.82,1.8175,1.8146,1.8131,1.8121,1.811,1.8107,1.8132,1.8114,1.8027,1.8013,1.8,1.7995,1.8132,1.8132,1.8208,1.8209,1.821]}]]